C/2015 LC2 ( PanSTARRS )

Japanese version
Home page
Updated on April 13, 2018

---------------------------------------------------------------------

* Profile

Discovery Date June 7, 2015
Magnitude 19.9 mag
Discoverer Pan-STARRS 1 telescope (Haleakala)

* Pictures

* Orbital Elements

Epoch 2015 May 18.0 TT = JDT 2457160.5
T 2015 May 1.61064 TT                                   MPCW
q   5.8905682            (2000.0)            P               Q
z  -0.0003292      Peri.  341.82651     -0.67450203     -0.26845741
 +/-0.0000013      Node   223.56557     -0.49041436     -0.53339524
e   1.0019394      Incl.   93.71809     -0.55185212     +0.80213473
From 320 observations 2015 June 7-2018 Mar. 17, mean residual 0".6.

* Magnitudes Graph

        m1 = -10.2 + 5 log d + 30 log r(t - 550)

---------------------------------------------------------------------

The orbital elements are published on M.P.E.C. 2018-F152.
The magnitudes graphs are made with Comet for Windows.

---------------------------------------------------------------------

Copyright(C) Seiichi Yoshida (comet@aerith.net). All rights reserved.